TimeCDT,TemperatureF,Dew PointF,Humidity,Sea Level PressureIn,VisibilityMPH,Wind Direction,Wind SpeedMPH,Gust SpeedMPH,PrecipitationIn,Events,Conditions,WindDirDegrees,DateUTC
12:15 AM,32.0,28.4,87,30.13,10.0,East,20.7,27.6,N/A,,Overcast,100,2013-10-28 05:15:00
12:35 AM,32.0,28.4,87,30.14,10.0,East,21.9,27.6,N/A,,Overcast,100,2013-10-28 05:35:00
1:35 AM,30.2,28.4,93,30.15,10.0,East,23.0,26.5,N/A,,Overcast,100,2013-10-28 06:35:00
1:55 AM,30.2,28.4,93,30.15,10.0,East,20.7,29.9,N/A,,Overcast,100,2013-10-28 06:55:00
2:15 AM,28.4,26.6,93,30.16,10.0,East,21.9,28.8,N/A,,Overcast,90,2013-10-28 07:15:00
2:35 AM,28.4,26.6,93,30.16,10.0,East,21.9,27.6,N/A,,Overcast,100,2013-10-28 07:35:00
2:55 AM,26.6,26.6,100,30.18,10.0,East,20.7,27.6,N/A,,Overcast,90,2013-10-28 07:55:00
3:15 AM,26.6,26.6,100,30.18,10.0,East,21.9,27.6,N/A,,Overcast,90,2013-10-28 08:15:00
3:35 AM,26.6,26.6,100,30.19,10.0,East,21.9,27.6,N/A,,Overcast,90,2013-10-28 08:35:00
3:55 AM,26.6,24.8,93,30.20,7.0,East,21.9,28.8,N/A,,Overcast,90,2013-10-28 08:55:00
4:15 AM,26.6,26.6,100,30.19,6.0,East,20.7,26.5,N/A,,Overcast,90,2013-10-28 09:15:00
4:35 AM,26.6,24.8,93,30.19,6.0,East,19.6,25.3,N/A,,Overcast,100,2013-10-28 09:35:00
4:55 AM,26.6,24.8,93,30.20,4.0,East,19.6,24.2,N/A,,Overcast,100,2013-10-28 09:55:00
5:15 AM,26.6,24.8,93,30.20,5.0,East,20.7,27.6,N/A,,Overcast,90,2013-10-28 10:15:00
5:35 AM,24.8,24.8,100,30.21,5.0,East,19.6,-,N/A,,Overcast,90,2013-10-28 10:35:00
5:55 AM,24.8,24.8,100,30.21,6.0,East,18.4,24.2,N/A,,Overcast,100,2013-10-28 10:55:00
6:15 AM,24.8,24.8,100,30.22,7.0,East,18.4,-,N/A,,Overcast,100,2013-10-28 11:15:00
6:35 AM,24.8,24.8,100,30.21,7.0,East,17.3,24.2,N/A,,Overcast,100,2013-10-28 11:35:00
6:55 AM,24.8,24.8,100,30.21,6.0,East,20.7,-,N/A,,Overcast,90,2013-10-28 11:55:00
7:15 AM,24.8,24.8,100,30.22,3.0,East,18.4,-,N/A,,Overcast,90,2013-10-28 12:15:00
7:35 AM,24.8,24.8,100,30.23,2.5,East,17.3,-,N/A,,Overcast,90,2013-10-28 12:35:00
7:55 AM,24.8,24.8,100,30.23,1.2,East,17.3,26.5,N/A,,Overcast,90,2013-10-28 12:55:00
8:15 AM,24.8,23.0,93,30.24,0.5,East,18.4,-,N/A,Fog,Light Freezing Fog,90,2013-10-28 13:15:00
8:35 AM,24.8,24.8,100,30.25,0.2,East,18.4,24.2,N/A,Fog,Light Freezing Fog,100,2013-10-28 13:35:00
8:55 AM,24.8,23.0,93,30.25,0.2,East,16.1,20.7,N/A,Fog,Light Freezing Fog,80,2013-10-28 13:55:00
9:15 AM,24.8,23.0,93,30.25,0.2,East,19.6,-,N/A,Fog,Light Freezing Fog,90,2013-10-28 14:15:00
9:35 AM,24.8,23.0,93,30.26,0.2,East,18.4,-,N/A,Fog,Light Freezing Fog,100,2013-10-28 14:35:00
9:55 AM,24.8,23.0,93,30.25,0.2,East,19.6,25.3,N/A,Fog,Light Freezing Fog,100,2013-10-28 14:55:00
10:15 AM,24.8,23.0,93,30.25,0.2,East,19.6,23.0,N/A,Fog,Light Freezing Fog,90,2013-10-28 15:15:00
10:35 AM,24.8,23.0,93,30.24,0.2,East,19.6,-,N/A,Fog,Light Freezing Fog,100,2013-10-28 15:35:00
10:55 AM,24.8,24.8,100,30.23,0.2,East,21.9,-,N/A,Fog,Light Freezing Fog,90,2013-10-28 15:55:00
11:15 AM,24.8,24.8,100,30.22,0.5,East,19.6,25.3,N/A,Fog,Light Freezing Fog,90,2013-10-28 16:15:00
11:35 AM,24.8,24.8,100,30.21,0.8,North,-9999.0,-,N/A,,Overcast,0,2013-10-28 16:35:00
11:55 AM,24.8,24.8,100,30.22,0.8,East,16.1,25.3,0.02,Snow,Light Snow,90,2013-10-28 16:55:00
12:15 PM,24.8,24.8,100,30.22,2.0,North,-9999.0,-,0.01,Snow,Light Snow,0,2013-10-28 17:15:00
12:35 PM,24.8,24.8,100,30.22,10.0,East,16.1,24.2,0.01,,Partly Cloudy,90,2013-10-28 17:35:00
12:55 PM,26.6,24.8,93,30.22,10.0,East,16.1,23.0,0.01,,Partly Cloudy,90,2013-10-28 17:55:00
1:15 PM,24.8,24.8,100,30.21,10.0,East,17.3,-,N/A,,Mostly Cloudy,80,2013-10-28 18:15:00
1:35 PM,24.8,24.8,100,30.20,10.0,East,18.4,-,N/A,,Mostly Cloudy,80,2013-10-28 18:35:00
1:55 PM,26.6,24.8,93,30.19,10.0,East,19.6,-,N/A,,Mostly Cloudy,80,2013-10-28 18:55:00
2:15 PM,26.6,24.8,93,30.19,10.0,East,20.7,-,N/A,,Mostly Cloudy,80,2013-10-28 19:15:00
2:35 PM,26.6,24.8,93,30.18,10.0,East,20.7,25.3,N/A,,Mostly Cloudy,90,2013-10-28 19:35:00
2:55 PM,26.6,24.8,93,30.18,10.0,East,20.7,25.3,N/A,,Mostly Cloudy,90,2013-10-28 19:55:00
3:15 PM,26.6,26.6,100,30.17,10.0,North,-9999.0,-,N/A,,Scattered Clouds,0,2013-10-28 20:15:00
3:35 PM,26.6,24.8,93,30.18,10.0,East,20.7,-,N/A,,Scattered Clouds,90,2013-10-28 20:35:00
3:55 PM,26.6,26.6,100,30.18,10.0,East,23.0,28.8,N/A,,Scattered Clouds,90,2013-10-28 20:55:00
4:15 PM,24.8,24.8,100,30.18,10.0,East,21.9,28.8,N/A,,Mostly Cloudy,90,2013-10-28 21:15:00
4:35 PM,24.8,24.8,100,30.18,10.0,East,20.7,27.6,N/A,,Overcast,100,2013-10-28 21:35:00
4:55 PM,24.8,24.8,100,30.18,5.0,East,21.9,28.8,N/A,,Overcast,100,2013-10-28 21:55:00
5:15 PM,24.8,24.8,100,30.18,5.0,East,25.3,-,N/A,,Overcast,100,2013-10-28 22:15:00
5:35 PM,24.8,24.8,100,30.19,5.0,East,19.6,25.3,N/A,,Overcast,100,2013-10-28 22:35:00
5:55 PM,24.8,24.8,100,30.19,10.0,East,18.4,-,N/A,,Overcast,100,2013-10-28 22:55:00
6:15 PM,24.8,24.8,100,30.19,10.0,East,18.4,-,N/A,,Mostly Cloudy,100,2013-10-28 23:15:00
6:35 PM,24.8,24.8,100,30.19,10.0,East,19.6,24.2,N/A,,Overcast,100,2013-10-28 23:35:00
6:55 PM,24.8,23.0,93,30.20,8.0,East,16.1,-,N/A,,Mostly Cloudy,100,2013-10-28 23:55:00
7:15 PM,24.8,23.0,93,30.20,10.0,East,19.6,-,N/A,,Mostly Cloudy,100,2013-10-29 00:15:00
7:35 PM,24.8,23.0,93,30.20,10.0,East,18.4,23.0,N/A,,Overcast,100,2013-10-29 00:35:00
7:55 PM,24.8,23.0,93,30.19,10.0,East,17.3,-,N/A,,Overcast,90,2013-10-29 00:55:00
8:15 PM,24.8,23.0,93,30.18,10.0,East,17.3,23.0,N/A,,Overcast,90,2013-10-29 01:15:00
8:35 PM,24.8,23.0,93,30.17,10.0,East,18.4,25.3,N/A,,Overcast,100,2013-10-29 01:35:00
8:55 PM,24.8,23.0,93,30.16,10.0,East,20.7,27.6,N/A,,Overcast,100,2013-10-29 01:55:00
9:15 PM,24.8,23.0,93,30.19,10.0,ESE,18.4,-,N/A,,Overcast,110,2013-10-29 02:15:00
9:35 PM,24.8,23.0,93,30.21,9.0,ESE,16.1,-,N/A,,Overcast,110,2013-10-29 02:35:00
9:55 PM,24.8,24.8,100,30.21,5.0,ESE,15.0,-,N/A,,Overcast,110,2013-10-29 02:55:00
10:15 PM,24.8,24.8,100,30.21,4.0,East,15.0,-,N/A,,Overcast,100,2013-10-29 03:15:00
10:35 PM,24.8,24.8,100,30.20,10.0,East,11.5,-,N/A,,Overcast,80,2013-10-29 03:35:00
10:55 PM,24.8,23.0,93,30.21,10.0,East,12.7,-,N/A,,Overcast,90,2013-10-29 03:55:00
11:15 PM,24.8,23.0,93,30.21,10.0,East,13.8,-,N/A,,Overcast,100,2013-10-29 04:15:00
11:35 PM,24.8,24.8,100,30.20,10.0,East,13.8,-,N/A,,Overcast,90,2013-10-29 04:35:00
11:55 PM,24.8,24.8,100,30.19,10.0,East,15.0,-,N/A,,Overcast,90,2013-10-29 04:55:00